• In Uzbekistan
  • List of Countries
  • For 7 days
  • Water Temperature
  • Satellite Maps
  • Weather Map
  • Weather Widgets
  • user-avatar
    Login

    Hourly Weather Corfu

    Today, 20 October, Friday

    Time Temperature Precipitation Wind Pressure Humidity
    00:00 +18°C° 0 mm 2 mps 763 mmHg 89%
    01:00 +18°C° 0 mm 2 mps 763 mmHg 89%
    02:00 +18°C° 0 mm 2 mps 763 mmHg 89%
    03:00 +17°C° 0 mm 2 mps 763 mmHg 88%
    04:00 +17°C° 0 mm 2 mps 763 mmHg 88%
    05:00 +17°C° 0 mm 2 mps 763 mmHg 85%
    06:00 +18°C° 0 mm 2 mps 763 mmHg 81%
    07:00 +18°C° 0 mm 2 mps 763 mmHg 78%
    08:00 +20°C° 0 mm 2 mps 764 mmHg 70%
    09:00 +23°C° 0 mm 2 mps 764 mmHg 62%
    10:00 +25°C° 0 mm 2 mps 764 mmHg 55%
    11:00 +26°C° 0 mm 2 mps 764 mmHg 53%
    12:00 +26°C° 0 mm 2 mps 764 mmHg 51%
    13:00 +26°C° 0 mm 2 mps 764 mmHg 49%
    14:00 +26°C° 0 mm 2 mps 763 mmHg 54%
    15:00 +25°C° 0 mm 1 mps 763 mmHg 59%
    16:00 +24°C° 0 mm 1 mps 763 mmHg 64%
    17:00 +23°C° 0 mm 1 mps 763 mmHg 72%
    18:00 +22°C° 0 mm 1 mps 764 mmHg 79%
    19:00 +20°C° 0 mm 1 mps 764 mmHg 86%
    20:00 +20°C° 0 mm 1 mps 764 mmHg 88%
    21:00 +20°C° 0 mm 1 mps 765 mmHg 89%
    22:00 +19°C° 0 mm 1 mps 765 mmHg 90%
    23:00 +19°C° 0 mm 1 mps 765 mmHg 89%

    Tomorrow, 21 October, Saturday

    Time Temperature Precipitation Wind Pressure Humidity
    00:00 +19°C° 0 mm 1 mps 765 mmHg 89%
    01:00 +18°C° 0 mm 1 mps 765 mmHg 89%
    02:00 +18°C° 0 mm 1 mps 764 mmHg 88%
    03:00 +18°C° 0 mm 1 mps 764 mmHg 87%
    04:00 +18°C° 0 mm 1 mps 764 mmHg 86%
    05:00 +17°C° 0 mm 2 mps 764 mmHg 82%
    06:00 +18°C° 0 mm 2 mps 764 mmHg 79%
    07:00 +18°C° 0 mm 2 mps 764 mmHg 75%
    08:00 +20°C° 0 mm 2 mps 764 mmHg 66%
    09:00 +23°C° 0 mm 2 mps 764 mmHg 57%
    10:00 +25°C° 0 mm 3 mps 764 mmHg 48%
    11:00 +26°C° 0 mm 3 mps 764 mmHg 46%
    12:00 +27°C° 0 mm 4 mps 763 mmHg 43%
    13:00 +27°C° 0 mm 4 mps 763 mmHg 41%
    14:00 +26°C° 0 mm 4 mps 763 mmHg 45%
    15:00 +26°C° 0 mm 5 mps 763 mmHg 48%
    16:00 +25°C° 0 mm 5 mps 762 mmHg 52%
    17:00 +23°C° 0 mm 5 mps 763 mmHg 58%
    18:00 +21°C° 0 mm 4 mps 763 mmHg 64%
    19:00 +20°C° 0 mm 4 mps 763 mmHg 70%
    20:00 +19°C° 0 mm 4 mps 763 mmHg 70%
    21:00 +19°C° 0 mm 4 mps 763 mmHg 71%
    22:00 +18°C° 0 mm 4 mps 763 mmHg 71%
    23:00 +18°C° 0 mm 4 mps 763 mmHg 70%

    Day after tomorrow, 22 October, Sunday

    Time Temperature Precipitation Wind Pressure Humidity
    00:00 +18°C° 0 mm 4 mps 763 mmHg 70%
    01:00 +18°C° 0 mm 4 mps 763 mmHg 69%
    02:00 +17°C° 0 mm 4 mps 763 mmHg 68%
    03:00 +17°C° 0 mm 4 mps 762 mmHg 67%
    04:00 +17°C° 0 mm 4 mps 762 mmHg 66%
    05:00 +17°C° 0 mm 4 mps 762 mmHg 63%
    06:00 +17°C° 0 mm 4 mps 762 mmHg 61%
    07:00 +18°C° 0 mm 4 mps 762 mmHg 58%
    08:00 +20°C° 0 mm 3 mps 762 mmHg 50%
    09:00 +22°C° 0 mm 3 mps 762 mmHg 42%
    10:00 +26°C° 0 mm 3 mps 762 mmHg 33%
    11:00 +26°C° 0 mm 3 mps 762 mmHg 34%
    12:00 +27°C° 0 mm 4 mps 761 mmHg 34%
    13:00 +27°C° 0 mm 4 mps 761 mmHg 34%
    14:00 +27°C° 0 mm 4 mps 760 mmHg 40%
    15:00 +26°C° 0 mm 4 mps 760 mmHg 45%
    16:00 +25°C° 0 mm 4 mps 760 mmHg 50%
    17:00 +24°C° 0 mm 3 mps 760 mmHg 56%
    18:00 +21°C° 0 mm 3 mps 760 mmHg 62%
    19:00 +20°C° 0 mm 2 mps 760 mmHg 68%
    20:00 +19°C° 0 mm 2 mps 760 mmHg 69%
    21:00 +19°C° 0 mm 2 mps 760 mmHg 70%
    22:00 +19°C° 0 mm 2 mps 760 mmHg 71%
    23:00 +18°C° 0 mm 2 mps 759 mmHg 72%

    23 October, Monday

    Time Temperature Precipitation Wind Pressure Humidity
    00:00 +18°C° 0 mm 2 mps 759 mmHg 73%
    01:00 +18°C° 0 mm 2 mps 759 mmHg 74%
    02:00 +18°C° 0.1 mm 2 mps 758 mmHg 77%
    03:00 +17°C° 0.1 mm 3 mps 758 mmHg 79%
    04:00 +17°C° 0.1 mm 3 mps 758 mmHg 82%
    05:00 +17°C° 0.9 mm 3 mps 757 mmHg 81%
    06:00 +17°C° 0.9 mm 3 mps 757 mmHg 80%
    07:00 +18°C° 0.9 mm 3 mps 757 mmHg 79%
    08:00 +19°C° 0.6 mm 3 mps 757 mmHg 74%
    09:00 +20°C° 0.6 mm 3 mps 756 mmHg 69%
    10:00 +22°C° 0.6 mm 3 mps 756 mmHg 64%
    11:00 +21°C° 0.9 mm 2 mps 755 mmHg 66%
    12:00 +21°C° 0.9 mm 2 mps 755 mmHg 68%
    13:00 +20°C° 0.9 mm 2 mps 754 mmHg 70%
    14:00 +20°C° 0.6 mm 2 mps 754 mmHg 71%
    15:00 +20°C° 0.6 mm 2 mps 753 mmHg 72%
    16:00 +19°C° 0.6 mm 3 mps 753 mmHg 73%
    17:00 +18°C° 0.6 mm 2 mps 753 mmHg 76%
    18:00 +18°C° 0.6 mm 2 mps 753 mmHg 78%
    19:00 +17°C° 0.6 mm 2 mps 753 mmHg 81%
    20:00 +17°C° 0.3 mm 3 mps 753 mmHg 81%
    21:00 +16°C° 0.3 mm 3 mps 753 mmHg 80%
    22:00 +15°C° 0.3 mm 4 mps 753 mmHg 80%
    23:00 +15°C° 0.8 mm 5 mps 752 mmHg 80%

    24 October, Tuesday

    Time Temperature Precipitation Wind Pressure Humidity
    00:00 +15°C° 0.8 mm 6 mps 752 mmHg 81%
    01:00 +15°C° 0.8 mm 6 mps 752 mmHg 81%
    02:00 +14°C° 0.4 mm 7 mps 752 mmHg 81%
    03:00 +14°C° 0.4 mm 7 mps 751 mmHg 81%
    04:00 +14°C° 0.4 mm 7 mps 751 mmHg 81%
    05:00 +14°C° 0.2 mm 7 mps 751 mmHg 81%
    06:00 +14°C° 0.2 mm 7 mps 751 mmHg 80%
    07:00 +14°C° 0.2 mm 7 mps 752 mmHg 79%
    08:00 +15°C° 0 mm 7 mps 752 mmHg 72%
    09:00 +16°C° 0 mm 7 mps 752 mmHg 66%
    10:00 +17°C° 0 mm 7 mps 752 mmHg 59%
    11:00 +17°C° 0.1 mm 7 mps 751 mmHg 61%
    12:00 +16°C° 0.1 mm 8 mps 751 mmHg 63%
    13:00 +16°C° 0.1 mm 8 mps 751 mmHg 65%
    14:00 +16°C° 0.2 mm 8 mps 751 mmHg 67%
    15:00 +15°C° 0.2 mm 8 mps 751 mmHg 69%
    16:00 +15°C° 0.2 mm 8 mps 751 mmHg 71%
    17:00 +14°C° 0.3 mm 7 mps 751 mmHg 74%
    18:00 +14°C° 0.3 mm 7 mps 751 mmHg 77%
    19:00 +14°C° 0.3 mm 7 mps 752 mmHg 80%
    20:00 +13°C° 0.2 mm 6 mps 752 mmHg 81%
    21:00 +13°C° 0.2 mm 6 mps 752 mmHg 81%
    22:00 +13°C° 0.2 mm 6 mps 752 mmHg 82%
    23:00 +13°C° 0 mm 5 mps 752 mmHg 82%

    25 October, Wednesday

    Time Temperature Precipitation Wind Pressure Humidity
    00:00 +13°C° 0 mm 5 mps 752 mmHg 81%
    01:00 +12°C° 0 mm 4 mps 753 mmHg 81%
    02:00 +13°C° 0 mm 4 mps 753 mmHg 81%
    03:00 +13°C° 0 mm 4 mps 753 mmHg 80%
    04:00 +13°C° 0 mm 4 mps 753 mmHg 79%
    05:00 +13°C° 0 mm 4 mps 754 mmHg 79%
    06:00 +14°C° 0 mm 3 mps 754 mmHg 78%
    07:00 +14°C° 0 mm 3 mps 755 mmHg 77%
    08:00 +17°C° 0 mm 3 mps 755 mmHg 70%
    09:00 +19°C° 0 mm 3 mps 755 mmHg 62%
    10:00 +21°C° 0 mm 3 mps 756 mmHg 55%
    11:00 +21°C° 0 mm 3 mps 756 mmHg 53%
    12:00 +22°C° 0 mm 3 mps 756 mmHg 51%
    13:00 +22°C° 0 mm 3 mps 756 mmHg 49%
    14:00 +21°C° 0 mm 3 mps 757 mmHg 52%
    15:00 +21°C° 0 mm 4 mps 757 mmHg 55%
    16:00 +20°C° 0 mm 4 mps 757 mmHg 58%
    17:00 +19°C° 0 mm 4 mps 758 mmHg 61%
    18:00 +18°C° 0 mm 4 mps 759 mmHg 64%
    19:00 +17°C° 0 mm 4 mps 759 mmHg 66%
    20:00 +17°C° 0 mm 4 mps 760 mmHg 67%
    21:00 +17°C° 0 mm 4 mps 760 mmHg 69%
    22:00 +15°C° 0 mm 4 mps 761 mmHg 70%
    23:00 +15°C° 0 mm 4 mps 761 mmHg 71%
    Show more